Location: ???????
(55.4362°N, 38.1183°E)
Time: 20:42:12
(UTC+00:00)

M-CUBED/EXP-1 PRIME - Pass Details

Date: 07 December 2021
Orbit: 426 x 650 km, 101.7° (Epoch: 26 January)

Event Time Altitude Azimuth Distance (km) Brightness Sun altitude
Rises 13:53:59 0° 130° (SE) 2,843 ? -7.3°
Reaches altitude 10° 13:56:13 10° 122° (ESE) 1,974 ? -7.6°
Maximum altitude 14:00:10 36° 56° (NE) 1,003 ? -8.1°
Drops below altitude 10° 14:04:17 10° 350° (N) 2,061 ? -8.6°
Sets 14:06:39 0° 342° (NNW) 2,987 ? -8.9°
